Starlink 32770

operational
NORAD ID: 62741 Int'l Des: 2025-014 Owner: SPXS Country: US Constellation: starlink
LEOCIRCULAR

About Starlink 32770

Description loading...

Live Position

Loading 3D Globe...

Upcoming Passes

Altitude History

Altitude vs Time

uPlot chart will show altitude changes over time

Two-Line Element Set

1 62741U 25014G 25258.15208979 .00068529 00000-0 24736-2 0 9999
2 62741 43.0008 65.5217 0002139 276.1573 83.9035 15.27620666 36412
Epoch: Sep 15, 2025 • Age: 24 hours

Current Status

Altitude 486.0 km
Velocity 7.63 km/s
Sub-Earth Point 38.22°N, 132.05°E
Launch Date Jan 21, 2025
Age 0.6 years
Type internet

Technical Details

Classification Payload
Mass 730.00 kg
Dry Mass 700.00 kg
Total Mass 730.00 kg
Length 0.30 m
Diameter 4.10 m
Span 29.00 m
Shape Box + pan
Manufacturer SPXS
Bus Type Starlink V2M
Phase Status In Orbit
Owner/State SPXS/US

Large Constellations

Loading constellations...